1999-01-01 01:00:00,-2.82,-2.67,-2.67,-2.39
1999-01-01 02:00:00,-2.83,-2.70,-2.72,-2.52
1999-01-01 03:00:00,-2.49,-2.44,-2.46,-2.19
1999-01-01 04:00:00,-2.78,-2.72,-2.68,-2.40
1999-01-01 05:00:00,-2.83,-2.75,-2.76,-2.43
1999-01-01 06:00:00,-2.94,-2.89,-2.83,-2.54
1999-01-01 07:00:00,-3.58,-3.53,-3.51,-3.25
1999-01-01 08:00:00,-3.73,-3.64,-3.65,-3.35
1999-01-01 09:00:00,-3.40,-3.17,-3.31,-2.99
1999-01-01 10:00:00,-3.94,-3.76,-3.77,-3.50
1999-01-01 11:00:00,-3.82,-3.58,-3.63,-3.34
1999-01-01 12:00:00,-3.65,-3.40,-3.52,-3.23
1999-01-01 13:00:00,-3.13,-2.82,-2.94,-2.61
1999-01-01 14:00:00,-3.31,-3.08,-3.15,-2.83
1999-01-01 15:00:00,-2.84,-2.77,-2.86,-2.52
1999-01-01 16:00:00,-2.47,-2.41,-2.48,-2.13
1999-01-01 17:00:00,-2.29,-2.18,-2.23,-2.01
1999-01-01 18:00:00,-3.64,-3.68,-3.47,-3.25
1999-01-01 19:00:00,-4.22,-3.88,-3.93,-3.74
1999-01-01 20:00:00,-5.62,-5.38,-5.16,-5.09
1999-01-01 21:00:00,-6.63,-6.33,-6.22,-6.05
1999-01-01 22:00:00,-6.02,-5.78,-5.80,-5.56
1999-01-01 23:00:00,-5.50,-5.43,-5.34,-5.04
1999-01-02 00:00:00,-5.72,-5.88,-5.71,-5.38
1999-01-02 01:00:00,-5.65,-5.68,-5.59,-5.20
1999-01-02 02:00:00,-5.87,-5.98,-5.81,-5.49
1999-01-02 03:00:00,-6.26,-6.39,-6.18,-5.74
1999-01-02 04:00:00,-6.52,-6.63,-6.45,-6.01
1999-01-02 05:00:00,-6.82,-6.93,-6.72,-6.34
1999-01-02 06:00:00,-7.08,-7.20,-6.98,-6.72
1999-01-02 07:00:00,-7.38,-7.50,-7.30,-7.02
1999-01-02 08:00:00,-7.49,-7.61,-7.40,-7.09
1999-01-02 09:00:00,-7.46,-7.55,-7.34,-7.01
1999-01-02 10:00:00,-7.36,-7.45,-7.25,-6.93
1999-01-02 11:00:00,-7.51,-7.57,-7.30,-6.98
1999-01-02 12:00:00,-8.02,-8.07,-7.85,-7.64
1999-01-02 13:00:00,-9.24,-9.26,-8.94,-9.02
1999-01-02 14:00:00,-9.10,-9.12,-8.91,-8.77
1999-01-02 15:00:00,-9.44,-9.48,-9.25,-9.19
1999-01-02 16:00:00,-9.74,-9.67,-9.39,-9.43
1999-01-02 17:00:00,-9.79,-9.65,-9.50,-9.40
1999-01-02 18:00:00,-9.25,-9.22,-9.02,-8.91
1999-01-02 19:00:00,-9.53,-9.38,-9.19,-9.05
1999-01-02 20:00:00,-9.43,-9.44,-9.25,-9.14
1999-01-02 21:00:00,-9.32,-9.29,-9.07,-8.91
1999-01-02 22:00:00,-10.18,-10.15,-9.84,-9.94
1999-01-02 23:00:00,-10.81,-10.58,-10.48,-10.36
1999-01-03 00:00:00,-10.93,-10.64,-10.38,-10.37
1999-01-03 01:00:00,-11.75,-11.57,-11.21,-11.47
1999-01-03 02:00:00,-11.41,-10.91,-10.79,-10.72
1999-01-03 03:00:00,-10.00,-9.53,-9.45,-9.22
1999-01-03 04:00:00,-9.43,-8.99,-8.81,-8.61
1999-01-03 05:00:00,-9.41,-8.90,-8.92,-8.63
1999-01-03 06:00:00,-8.16,-7.77,-7.64,-7.66
1999-01-03 07:00:00,-7.87,-7.32,-7.37,-7.04
1999-01-03 08:00:00,-6.91,-6.14,-6.51,-6.05
1999-01-03 09:00:00,-5.71,-5.25,-5.51,-5.41
1999-01-03 10:00:00,-5.16,-4.74,-4.83,-4.76
1999-01-03 11:00:00,-6.11,-5.40,-5.68,-5.58
1999-01-03 12:00:00,-6.89,-6.79,-6.50,-6.36
1999-01-03 13:00:00,-6.65,-6.12,-6.25,-6.16
1999-01-03 14:00:00,-6.54,-5.98,-5.91,-6.16
1999-01-03 15:00:00,-5.08,-4.60,-4.67,-4.51
1999-01-03 16:00:00,-6.83,-6.55,-6.40,-6.22
1999-01-03 17:00:00,-5.58,-5.25,-5.20,-5.10
1999-01-03 18:00:00,-6.01,-5.91,-5.78,-5.80
1999-01-03 19:00:00,-5.50,-5.49,-5.41,-5.16
1999-01-03 20:00:00,-5.58,-5.73,-5.52,-5.26
1999-01-03 21:00:00,-6.73,-6.77,-6.59,-6.41
1999-01-03 22:00:00,-6.34,-6.39,-6.29,-6.06
1999-01-03 23:00:00,-6.27,-6.30,-6.17,-5.93
1999-01-04 00:00:00,-7.85,-7.66,-7.34,-7.42
1999-01-04 01:00:00,-9.27,-8.78,-8.74,-8.73
1999-01-04 02:00:00,-8.20,-8.02,-7.99,-7.85
1999-01-04 03:00:00,-6.96,-6.92,-6.81,-6.58
1999-01-04 04:00:00,-7.66,-7.60,-7.38,-7.35
1999-01-04 05:00:00,-8.37,-8.25,-8.00,-8.20
1999-01-04 06:00:00,-9.02,-8.79,-8.59,-8.76
1999-01-04 07:00:00,-8.47,-8.29,-8.19,-8.57
1999-01-04 08:00:00,-9.08,-8.67,-8.50,-9.39
1999-01-04 09:00:00,-8.32,-7.71,-7.79,-8.65
1999-01-04 10:00:00,-5.88,-5.72,-5.95,-6.33
1999-01-04 11:00:00,-3.58,-3.46,-3.52,-3.51
1999-01-04 12:00:00,-3.45,-3.53,-3.30,-3.24
1999-01-04 13:00:00,-6.05,-6.04,-5.89,-5.96
1999-01-04 14:00:00,-5.62,-5.54,-5.35,-5.64
1999-01-04 15:00:00,-6.91,-6.62,-6.60,-6.67
1999-01-04 16:00:00,-7.80,-7.18,-7.00,-7.26
1999-01-04 17:00:00,-8.08,-7.32,-7.35,-7.36
1999-01-04 18:00:00,-8.75,-7.98,-8.00,-7.93
1999-01-04 19:00:00,-8.16,-7.68,-7.42,-7.61
1999-01-04 20:00:00,-9.15,-8.47,-8.48,-8.61
1999-01-04 21:00:00,-8.82,-8.21,-8.14,-8.13
1999-01-04 22:00:00,-8.14,-7.48,-7.43,-7.65
1999-01-04 23:00:00,-8.40,-7.85,-7.73,-7.76
1999-01-05 00:00:00,-10.34,-9.97,-9.52,-9.74
1999-01-05 01:00:00,-11.05,-10.44,-10.35,-10.47
1999-01-05 02:00:00,-10.61,-9.96,-9.93,-9.97
1999-01-05 03:00:00,-12.62,-12.40,-12.08,-12.32
1999-01-05 04:00:00,-11.82,-11.50,-11.38,-11.52
1999-01-05 05:00:00,-13.31,-12.95,-12.71,-12.92
1999-01-05 06:00:00,-13.67,-13.44,-13.05,-13.24
1999-01-05 07:00:00,-13.42,-13.18,-12.88,-12.95
1999-01-05 08:00:00,-13.88,-13.69,-13.17,-13.26
1999-01-05 09:00:00,-13.42,-13.14,-12.84,-12.85
1999-01-05 10:00:00,-11.49,-11.23,-10.97,-10.70
1999-01-05 11:00:00,-10.82,-10.62,-10.32,-10.53
1999-01-05 12:00:00,-9.14,-8.83,-8.49,-8.53
1999-01-05 13:00:00,-9.84,-9.60,-9.16,-9.33
1999-01-05 14:00:00,-10.34,-9.87,-9.60,-9.58
1999-01-05 15:00:00,-10.20,-9.65,-9.40,-9.30
1999-01-05 16:00:00,-8.69,-8.39,-8.27,-8.10
1999-01-05 17:00:00,-7.42,-7.52,-7.21,-7.36
1999-01-05 18:00:00,-6.71,-6.61,-6.42,-6.76
1999-01-05 19:00:00,-7.02,-6.89,-6.62,-6.97
1999-01-05 20:00:00,-7.24,-7.04,-6.85,-6.93
1999-01-05 21:00:00,-7.34,-7.15,-7.01,-6.97
1999-01-05 22:00:00,-7.46,-7.28,-7.10,-6.99
1999-01-05 23:00:00,-7.20,-6.96,-6.85,-6.77
1999-01-06 00:00:00,-6.74,-6.48,-6.41,-6.29
1999-01-06 01:00:00,-6.93,-6.94,-6.65,-6.79
1999-01-06 02:00:00,-7.55,-7.49,-7.30,-7.40
1999-01-06 03:00:00,-7.57,-7.43,-7.26,-7.22
1999-01-06 04:00:00,-7.83,-7.68,-7.52,-7.45
1999-01-06 05:00:00,-8.31,-8.28,-8.01,-8.02
1999-01-06 06:00:00,-8.71,-8.48,-8.24,-8.25
1999-01-06 07:00:00,-10.06,-9.85,-9.58,-9.53
1999-01-06 08:00:00,-9.83,-9.75,-9.64,-9.63
1999-01-06 09:00:00,-9.63,-9.65,-9.44,-9.35
1999-01-06 10:00:00,-9.85,-9.87,-9.64,-9.56
1999-01-06 11:00:00,-10.00,-10.01,-9.83,-9.72
1999-01-06 12:00:00,-10.98,-10.87,-10.60,-10.60
1999-01-06 13:00:00,-10.91,-10.84,-10.62,-10.56
1999-01-06 14:00:00,-11.33,-11.10,-10.98,-10.87
1999-01-06 15:00:00,-10.34,-10.18,-9.91,-9.94
1999-01-06 16:00:00,-10.21,-10.03,-9.81,-9.70
1999-01-06 17:00:00,-10.16,-10.06,-9.81,-9.73
1999-01-06 18:00:00,-9.77,-9.71,-9.43,-9.33
1999-01-06 19:00:00,-10.49,-10.31,-10.01,-9.96
1999-01-06 20:00:00,-12.20,-11.87,-11.48,-11.48
1999-01-06 21:00:00,-12.68,-12.08,-11.93,-11.98
1999-01-06 22:00:00,-12.31,-11.98,-11.75,-11.96
1999-01-06 23:00:00,-12.02,-11.60,-11.38,-11.35
1999-01-07 00:00:00,-11.98,-11.52,-11.29,-11.40
1999-01-07 01:00:00,-11.47,-11.11,-10.90,-10.82
1999-01-07 02:00:00,-10.76,-10.46,-10.09,-10.32
1999-01-07 03:00:00,-9.85,-9.75,-9.30,-9.76
1999-01-07 04:00:00,-6.99,-6.79,-6.72,-6.89
1999-01-07 05:00:00,-6.79,-6.63,-6.48,-6.59
1999-01-07 06:00:00,-6.84,-6.73,-6.47,-6.50
1999-01-07 07:00:00,-8.89,-8.96,-8.65,-8.75
1999-01-07 08:00:00,-7.07,-6.84,-6.83,-6.66
1999-01-07 09:00:00,-7.29,-7.18,-7.04,-6.96
1999-01-07 10:00:00,-7.61,-7.54,-7.38,-7.25
1999-01-07 11:00:00,-7.57,-7.51,-7.36,-7.21
1999-01-07 12:00:00,-8.19,-8.25,-7.98,-7.76
1999-01-07 13:00:00,-7.43,-7.37,-7.29,-7.07
1999-01-07 14:00:00,-7.58,-7.51,-7.38,-7.17
1999-01-07 15:00:00,-7.45,-7.39,-7.27,-7.04
1999-01-07 16:00:00,-7.69,-7.58,-7.46,-7.27
1999-01-07 17:00:00,-7.69,-7.57,-7.46,-7.26
1999-01-07 18:00:00,-7.79,-7.69,-7.55,-7.37
1999-01-07 19:00:00,-7.61,-7.53,-7.39,-7.20
1999-01-07 20:00:00,-7.77,-7.67,-7.53,-7.35
1999-01-07 21:00:00,-7.76,-7.67,-7.53,-7.34
1999-01-07 22:00:00,-7.33,-7.25,-7.14,-6.93
1999-01-07 23:00:00,-7.43,-7.37,-7.22,-7.01
1999-01-08 00:00:00,-7.25,-7.19,-7.05,-6.86
1999-01-08 01:00:00,-6.97,-6.92,-6.81,-6.61
1999-01-08 02:00:00,-6.74,-6.64,-6.53,-6.33
1999-01-08 03:00:00,-6.73,-6.61,-6.49,-6.27
1999-01-08 04:00:00,-6.93,-6.84,-6.72,-6.52
1999-01-08 05:00:00,-6.43,-6.40,-6.32,-6.09
1999-01-08 06:00:00,-6.05,-6.06,-5.96,-5.76
1999-01-08 07:00:00,-6.05,-6.06,-5.94,-5.72
1999-01-08 08:00:00,-5.92,-5.91,-5.83,-5.56
1999-01-08 09:00:00,-6.01,-5.96,-5.87,-5.57
1999-01-08 10:00:00,-6.08,-6.08,-5.96,-5.67
1999-01-08 11:00:00,-6.16,-6.14,-6.05,-5.77
1999-01-08 12:00:00,-6.45,-6.41,-6.30,-6.06
1999-01-08 13:00:00,-6.60,-6.51,-6.45,-6.22
1999-01-08 14:00:00,-6.52,-6.53,-6.38,-6.12
1999-01-08 15:00:00,-7.79,-8.00,-7.64,-7.36
1999-01-08 16:00:00,-8.15,-8.22,-8.08,-7.89
1999-01-08 17:00:00,-8.94,-8.74,-8.60,-8.40
1999-01-08 18:00:00,-8.81,-8.52,-8.46,-8.22
1999-01-08 19:00:00,-9.78,-9.62,-9.37,-9.49
1999-01-08 20:00:00,-10.40,-10.30,-9.92,-9.88
1999-01-08 21:00:00,-11.07,-10.81,-10.61,-10.65
1999-01-08 22:00:00,-11.58,-11.22,-11.06,-10.98
1999-01-08 23:00:00,-11.73,-11.41,-11.21,-11.19
1999-01-09 00:00:00,-11.47,-11.13,-10.93,-10.94
1999-01-09 01:00:00,-13.70,-13.24,-12.85,-13.00
1999-01-09 02:00:00,-13.77,-13.29,-13.02,-13.21
1999-01-09 03:00:00,-12.90,-12.43,-12.40,-12.45
1999-01-09 04:00:00,-10.78,-10.54,-10.40,-10.27
1999-01-09 05:00:00,-10.53,-10.40,-10.23,-10.09
1999-01-09 06:00:00,-10.54,-10.42,-10.20,-10.10
1999-01-09 07:00:00,-11.00,-10.83,-10.56,-10.52
1999-01-09 08:00:00,-12.12,-11.77,-11.57,-11.72
1999-01-09 09:00:00,-11.71,-11.57,-11.29,-11.36
1999-01-09 10:00:00,-10.60,-10.46,-10.37,-10.45
1999-01-09 11:00:00,-9.63,-9.53,-9.36,-9.23
1999-01-09 12:00:00,-10.54,-10.67,-10.24,-10.03
1999-01-09 13:00:00,-10.63,-10.69,-10.37,-10.10
1999-01-09 14:00:00,-10.44,-10.42,-10.25,-10.11
1999-01-09 15:00:00,-9.82,-9.82,-9.58,-9.42
1999-01-09 16:00:00,-9.62,-9.61,-9.40,-9.24
1999-01-09 17:00:00,-9.42,-9.41,-9.20,-9.04
1999-01-09 18:00:00,-9.54,-9.60,-9.29,-9.10
1999-01-09 19:00:00,-9.87,-9.85,-9.69,-9.52
1999-01-09 20:00:00,-9.85,-9.82,-9.54,-9.43
1999-01-09 21:00:00,-11.86,-11.67,-11.36,-11.40
1999-01-09 22:00:00,-13.60,-13.18,-12.99,-12.97
1999-01-09 23:00:00,-12.56,-12.09,-11.92,-11.90
1999-01-10 00:00:00,-13.98,-13.53,-13.28,-13.43
1999-01-10 01:00:00,-14.41,-14.02,-13.61,-13.73
1999-01-10 02:00:00,-14.93,-14.52,-14.29,-14.42
1999-01-10 03:00:00,-16.19,-15.79,-15.35,-15.50
1999-01-10 04:00:00,-15.93,-15.46,-15.16,-15.30
1999-01-10 05:00:00,-16.07,-15.48,-15.32,-15.40
1999-01-10 06:00:00,-16.57,-15.75,-15.58,-15.64
1999-01-10 07:00:00,-16.71,-15.88,-15.58,-15.64
1999-01-10 08:00:00,-16.31,-15.45,-15.44,-15.41
1999-01-10 09:00:00,-16.23,-15.49,-15.33,-15.37
1999-01-10 10:00:00,-15.70,-15.13,-14.91,-14.98
1999-01-10 11:00:00,-15.50,-14.99,-14.72,-14.79
1999-01-10 12:00:00,-16.02,-15.39,-15.18,-15.24
1999-01-10 13:00:00,-15.43,-14.89,-14.61,-14.68
1999-01-10 14:00:00,-15.90,-15.33,-15.07,-15.14
1999-01-10 15:00:00,-17.03,-16.27,-15.97,-16.10
1999-01-10 16:00:00,-17.68,-16.95,-16.61,-16.73
1999-01-10 17:00:00,-17.56,-16.88,-16.62,-16.72
1999-01-10 18:00:00,-17.68,-17.02,-16.77,-16.85
1999-01-10 19:00:00,-16.88,-16.14,-16.04,-16.04
1999-01-10 20:00:00,-16.71,-16.07,-15.75,-15.80
1999-01-10 21:00:00,-16.43,-15.82,-15.63,-15.64
1999-01-10 22:00:00,-14.87,-14.13,-14.06,-14.02
1999-01-10 23:00:00,-13.74,-13.21,-13.06,-13.09
1999-01-11 00:00:00,-14.29,-13.56,-13.46,-13.40
1999-01-11 01:00:00,-12.69,-12.07,-12.02,-11.98
1999-01-11 02:00:00,-11.49,-10.90,-10.90,-10.87
1999-01-11 03:00:00,-8.25,-7.98,-8.03,-7.96
1999-01-11 04:00:00,-8.21,-8.12,-7.95,-7.86
1999-01-11 05:00:00,-7.69,-7.62,-7.50,-7.37
1999-01-11 06:00:00,-7.73,-7.67,-7.54,-7.42
1999-01-11 07:00:00,-8.89,-8.93,-8.63,-8.53
1999-01-11 08:00:00,-8.63,-8.60,-8.42,-8.32
1999-01-11 09:00:00,-8.99,-8.95,-8.71,-8.60
1999-01-11 10:00:00,-9.73,-9.70,-9.38,-9.34
1999-01-11 11:00:00,-10.48,-10.29,-10.07,-10.04
1999-01-11 12:00:00,-10.30,-10.23,-9.93,-9.78
1999-01-11 13:00:00,-9.38,-9.26,-9.11,-8.89
1999-01-11 14:00:00,-8.89,-8.93,-8.63,-8.40
1999-01-11 15:00:00,-9.02,-9.02,-8.84,-8.72
1999-01-11 16:00:00,-9.06,-9.06,-8.79,-8.57
1999-01-11 17:00:00,-9.02,-8.85,-8.71,-8.58
1999-01-11 18:00:00,-9.93,-9.78,-9.42,-9.37
1999-01-11 19:00:00,-10.77,-10.56,-10.35,-10.36
1999-01-11 20:00:00,-10.62,-10.43,-10.23,-10.26
1999-01-11 21:00:00,-10.65,-10.60,-10.22,-10.22
1999-01-11 22:00:00,-11.32,-11.20,-10.88,-10.86
1999-01-11 23:00:00,-11.42,-11.19,-10.99,-10.89
1999-01-12 00:00:00,-11.38,-11.06,-10.79,-10.73
1999-01-12 01:00:00,-12.94,-12.66,-12.31,-12.38
1999-01-12 02:00:00,-13.18,-12.81,-12.54,-12.60
1999-01-12 03:00:00,-13.41,-12.99,-12.65,-12.83
1999-01-12 04:00:00,-14.28,-13.80,-13.65,-13.71
1999-01-12 05:00:00,-14.46,-13.96,-13.65,-13.75
1999-01-12 06:00:00,-15.97,-15.31,-15.14,-15.16
1999-01-12 07:00:00,-15.38,-14.82,-14.57,-14.61
1999-01-12 08:00:00,-16.26,-15.63,-15.31,-15.41
1999-01-12 09:00:00,-16.11,-15.48,-15.15,-15.32
1999-01-12 10:00:00,-16.45,-15.89,-15.52,-15.67
1999-01-12 11:00:00,-17.50,-16.86,-16.60,-16.80
1999-01-12 12:00:00,-15.87,-15.01,-14.89,-14.87
1999-01-12 13:00:00,-15.89,-15.18,-14.95,-14.98
1999-01-12 14:00:00,-15.60,-14.99,-14.66,-14.81
1999-01-12 15:00:00,-15.73,-15.15,-14.91,-15.03
1999-01-12 16:00:00,-15.85,-15.25,-14.94,-15.04
1999-01-12 17:00:00,-16.08,-15.34,-15.11,-15.17
1999-01-12 18:00:00,-15.42,-14.65,-14.45,-14.51
1999-01-12 19:00:00,-15.22,-14.59,-14.21,-14.39
1999-01-12 20:00:00,-15.86,-15.22,-14.97,-15.02
1999-01-12 21:00:00,-15.29,-14.76,-14.40,-14.67
1999-01-12 22:00:00,-15.65,-15.19,-15.06,-15.02
1999-01-12 23:00:00,-13.59,-13.34,-13.12,-13.01
1999-01-13 00:00:00,-15.12,-15.51,-14.67,-14.58
1999-01-13 01:00:00,-16.56,-16.58,-16.19,-16.18
1999-01-13 02:00:00,-16.94,-17.16,-16.50,-16.47
1999-01-13 03:00:00,-16.75,-16.79,-16.41,-16.47
1999-01-13 04:00:00,-16.05,-16.08,-15.67,-15.73
1999-01-13 05:00:00,-16.99,-17.19,-16.56,-16.53
1999-01-13 06:00:00,-16.51,-16.54,-16.19,-16.21
1999-01-13 07:00:00,-16.53,-16.69,-16.10,-16.09
1999-01-13 08:00:00,-17.07,-17.25,-16.71,-16.66
1999-01-13 09:00:00,-15.79,-15.75,-15.49,-15.42
1999-01-13 10:00:00,-15.75,-15.85,-15.29,-15.25
1999-01-13 11:00:00,-15.48,-15.43,-15.14,-15.10
1999-01-13 12:00:00,-15.30,-15.35,-14.90,-14.89
1999-01-13 13:00:00,-15.45,-15.54,-15.05,-15.06
1999-01-13 14:00:00,-15.84,-15.93,-15.38,-15.44
1999-01-13 15:00:00,-16.63,-16.72,-16.25,-16.28
1999-01-13 16:00:00,-15.90,-16.00,-15.60,-15.63
1999-01-13 17:00:00,-16.06,-16.15,-15.71,-15.75
1999-01-13 18:00:00,-16.27,-16.34,-15.88,-15.93
1999-01-13 19:00:00,-16.49,-16.56,-16.04,-16.22
1999-01-13 20:00:00,-17.72,-17.77,-17.14,-17.37
1999-01-13 21:00:00,-19.95,-19.78,-19.14,-19.39
1999-01-13 22:00:00,-21.97,-21.53,-20.98,-21.26
1999-01-13 23:00:00,-22.78,-22.12,-21.69,-21.93
1999-01-14 00:00:00,-22.34,-21.75,-21.09,-21.48
1999-01-14 01:00:00,-22.07,-21.49,-21.19,-21.32
1999-01-14 02:00:00,-20.68,-19.97,-19.63,-19.77
1999-01-14 03:00:00,-20.62,-20.01,-19.51,-19.77
1999-01-14 04:00:00,-19.90,-19.39,-19.03,-19.25
1999-01-14 05:00:00,-20.75,-20.33,-19.76,-20.14
1999-01-14 06:00:00,-21.37,-21.00,-20.49,-20.75
1999-01-14 07:00:00,-21.28,-20.81,-20.44,-20.72
1999-01-14 08:00:00,-22.73,-22.08,-21.59,-22.14
1999-01-14 09:00:00,-23.43,-22.98,-22.24,-22.89
1999-01-14 10:00:00,-24.56,-23.84,-23.54,-24.01
1999-01-14 11:00:00,-24.89,-24.07,-23.72,-24.08
1999-01-14 12:00:00,-23.68,-22.88,-22.46,-23.01
1999-01-14 13:00:00,-23.89,-23.33,-22.94,-23.28
1999-01-14 14:00:00,-22.85,-22.10,-21.83,-22.09
1999-01-14 15:00:00,-24.41,-23.88,-23.31,-23.85
1999-01-14 16:00:00,-23.93,-23.35,-22.91,-23.28
1999-01-14 17:00:00,-23.76,-23.27,-23.01,-23.17
1999-01-14 18:00:00,-23.73,-23.35,-22.80,-23.10
1999-01-14 19:00:00,-23.55,-22.98,-22.67,-22.90
1999-01-14 20:00:00,-22.91,-22.50,-21.99,-22.59
1999-01-14 21:00:00,-24.47,-24.12,-23.44,-24.06
1999-01-14 22:00:00,-26.28,-25.79,-25.09,-25.52
1999-01-14 23:00:00,-27.38,-26.84,-26.31,-26.72
1999-01-15 00:00:00,-28.14,-27.40,-27.02,-27.36
1999-01-15 01:00:00,-26.69,-26.02,-25.73,-25.97
1999-01-15 02:00:00,-27.69,-27.06,-26.56,-26.85
1999-01-15 03:00:00,-26.98,-26.69,-26.00,-26.33
1999-01-15 04:00:00,-27.76,-27.14,-26.76,-27.01
1999-01-15 05:00:00,-27.24,-26.71,-26.28,-26.69
1999-01-15 06:00:00,-27.76,-27.21,-26.76,-27.17
1999-01-15 07:00:00,-28.02,-27.48,-26.81,-27.42
1999-01-15 08:00:00,-27.11,-26.53,-26.08,-26.63
1999-01-15 09:00:00,-26.79,-26.13,-25.78,-26.14
1999-01-15 10:00:00,-25.89,-25.29,-24.87,-25.08
1999-01-15 11:00:00,-24.41,-23.84,-23.56,-23.90
1999-01-15 12:00:00,-24.47,-23.83,-23.41,-23.79
1999-01-15 13:00:00,-24.64,-24.08,-23.61,-24.23
1999-01-15 14:00:00,-24.64,-24.01,-23.63,-23.94
1999-01-15 15:00:00,-23.98,-23.30,-23.05,-23.15
1999-01-15 16:00:00,-22.27,-21.55,-21.38,-21.56
1999-01-15 17:00:00,-21.51,-20.78,-20.47,-20.72
1999-01-15 18:00:00,-20.71,-19.97,-19.83,-19.89
1999-01-15 19:00:00,-20.32,-19.77,-19.23,-19.52
1999-01-15 20:00:00,-19.05,-17.95,-17.73,-17.83
1999-01-15 21:00:00,-20.97,-20.26,-19.70,-20.41
1999-01-15 22:00:00,-21.13,-20.29,-20.03,-20.47
1999-01-15 23:00:00,-20.45,-19.66,-19.35,-19.97
1999-01-16 00:00:00,-20.77,-20.11,-19.75,-20.11
1999-01-16 01:00:00,-21.85,-21.30,-20.95,-21.18
1999-01-16 02:00:00,-20.68,-20.03,-19.84,-20.04
1999-01-16 03:00:00,-18.74,-18.33,-18.08,-18.34
1999-01-16 04:00:00,-15.70,-15.52,-15.35,-15.51
1999-01-16 05:00:00,-14.19,-14.22,-13.86,-13.83
1999-01-16 06:00:00,-14.42,-14.49,-14.07,-14.00
1999-01-16 07:00:00,-15.30,-15.38,-14.96,-14.93
1999-01-16 08:00:00,-14.72,-14.71,-14.42,-14.41
1999-01-16 09:00:00,-14.62,-14.60,-14.23,-14.23
1999-01-16 10:00:00,-14.72,-14.77,-14.35,-14.36
1999-01-16 11:00:00,-14.13,-14.11,-13.88,-13.78
1999-01-16 12:00:00,-14.21,-14.29,-13.80,-13.81
1999-01-16 13:00:00,-13.15,-13.11,-13.04,-12.85
1999-01-16 14:00:00,-12.36,-12.41,-12.10,-12.01
1999-01-16 15:00:00,-11.44,-11.36,-11.39,-11.20
1999-01-16 16:00:00,-10.23,-10.13,-10.18,-9.96
1999-01-16 17:00:00,-10.07,-10.09,-9.92,-9.69
1999-01-16 18:00:00,-9.80,-9.84,-9.66,-9.48
1999-01-16 19:00:00,-9.27,-9.33,-9.15,-8.91
1999-01-16 20:00:00,-9.24,-9.29,-9.02,-8.88
1999-01-16 21:00:00,-9.04,-9.10,-8.92,-8.74
1999-01-16 22:00:00,-8.55,-8.63,-8.46,-8.23
1999-01-16 23:00:00,-8.37,-8.50,-8.24,-8.03
1999-01-17 00:00:00,-7.62,-7.77,-7.69,-7.32
1999-01-17 01:00:00,-7.18,-7.25,-7.10,-6.86
1999-01-17 02:00:00,-6.99,-7.08,-6.88,-6.70
1999-01-17 03:00:00,-7.10,-7.16,-6.89,-6.76
1999-01-17 04:00:00,-7.71,-7.65,-7.51,-7.34
1999-01-17 05:00:00,-7.37,-7.57,-7.45,-7.03
1999-01-17 06:00:00,-5.97,-6.57,-6.40,-5.36
1999-01-17 07:00:00,-5.56,-5.51,-5.54,-5.06
1999-01-17 08:00:00,-5.13,-5.00,-5.03,-4.70
1999-01-17 09:00:00,-4.77,-4.71,-4.67,-4.36
1999-01-17 10:00:00,-4.65,-4.59,-4.56,-4.25
1999-01-17 11:00:00,-5.11,-5.11,-5.00,-4.76
1999-01-17 12:00:00,-4.86,-4.85,-4.76,-4.49
1999-01-17 13:00:00,-4.54,-4.53,-4.47,-4.18
1999-01-17 14:00:00,-4.54,-4.54,-4.49,-4.20
1999-01-17 15:00:00,-4.15,-4.11,-4.09,-3.85
1999-01-17 16:00:00,-4.51,-4.50,-4.42,-4.18
1999-01-17 17:00:00,-4.53,-4.49,-4.44,-4.20
1999-01-17 18:00:00,-4.50,-4.48,-4.42,-4.16
1999-01-17 19:00:00,-4.57,-4.58,-4.48,-4.22
1999-01-17 20:00:00,-4.79,-4.77,-4.70,-4.38
1999-01-17 21:00:00,-4.96,-4.89,-4.83,-4.58
1999-01-17 22:00:00,-4.76,-4.68,-4.67,-4.42
1999-01-17 23:00:00,-4.46,-4.36,-4.32,-4.08
1999-01-18 00:00:00,-4.40,-4.33,-4.27,-4.02
1999-01-18 01:00:00,-5.06,-4.88,-4.77,-4.63
1999-01-18 02:00:00,-6.68,-6.46,-6.31,-6.33
1999-01-18 03:00:00,-8.10,-7.76,-7.53,-7.73
1999-01-18 04:00:00,-8.57,-7.99,-7.97,-8.11
1999-01-18 05:00:00,-7.82,-7.33,-7.25,-7.52
1999-01-18 06:00:00,-9.11,-8.51,-8.42,-8.57
1999-01-18 07:00:00,-10.39,-9.61,-9.57,-9.56
1999-01-18 08:00:00,-10.50,-9.74,-9.72,-9.68
1999-01-18 09:00:00,-10.97,-10.34,-10.30,-10.29
1999-01-18 10:00:00,-9.81,-8.95,-9.13,-9.15
1999-01-18 11:00:00,-8.74,-7.92,-7.86,-7.80
1999-01-18 12:00:00,-8.36,-7.39,-7.69,-7.58
1999-01-18 13:00:00,-8.84,-8.03,-8.08,-8.02
1999-01-18 14:00:00,-8.85,-7.85,-8.08,-8.00
1999-01-18 15:00:00,-4.56,-4.27,-4.38,-4.18
1999-01-18 16:00:00,-4.50,-4.41,-4.44,-4.16
1999-01-18 17:00:00,-4.27,-4.27,-4.23,-3.93
1999-01-18 18:00:00,-3.85,-3.79,-3.83,-3.56
1999-01-18 19:00:00,-3.57,-3.59,-3.53,-3.29
1999-01-18 20:00:00,-3.69,-3.69,-3.64,-3.36
1999-01-18 21:00:00,-3.95,-3.98,-3.89,-3.63
1999-01-18 22:00:00,-3.79,-3.82,-3.75,-3.49
1999-01-18 23:00:00,-3.87,-3.89,-3.82,-3.58
1999-01-19 00:00:00,-4.06,-4.06,-3.97,-3.71
1999-01-19 01:00:00,-4.31,-4.31,-4.24,-3.99
1999-01-19 02:00:00,-4.63,-4.59,-4.55,-4.28
1999-01-19 03:00:00,-4.28,-4.24,-4.21,-3.96
1999-01-19 04:00:00,-4.28,-4.28,-4.22,-3.95
1999-01-19 05:00:00,-4.50,-4.51,-4.43,-4.20
1999-01-19 06:00:00,-4.70,-4.71,-4.62,-4.35
1999-01-19 07:00:00,-5.16,-5.10,-5.02,-4.78
1999-01-19 08:00:00,-6.21,-6.05,-5.92,-5.76
1999-01-19 09:00:00,-7.59,-7.25,-7.29,-7.18
1999-01-19 10:00:00,-6.89,-6.65,-6.56,-6.55
1999-01-19 11:00:00,-8.02,-7.74,-7.49,-7.40
1999-01-19 12:00:00,-8.73,-8.13,-8.12,-7.98
1999-01-19 13:00:00,-8.42,-7.78,-7.89,-7.69
1999-01-19 14:00:00,-9.80,-9.33,-9.19,-9.15
1999-01-19 15:00:00,-9.54,-8.74,-8.93,-8.82
1999-01-19 16:00:00,-9.54,-8.93,-8.80,-8.72
1999-01-19 17:00:00,-8.21,-7.76,-7.76,-7.65
1999-01-19 18:00:00,-8.72,-8.39,-8.17,-8.12
1999-01-19 19:00:00,-9.99,-9.59,-9.31,-9.35
1999-01-19 20:00:00,-10.06,-9.41,-9.40,-9.30
1999-01-19 21:00:00,-9.77,-9.33,-9.18,-9.15
1999-01-19 22:00:00,-10.71,-10.26,-9.96,-10.07
1999-01-19 23:00:00,-12.03,-11.48,-11.26,-11.30
1999-01-20 00:00:00,-11.73,-11.24,-11.07,-10.86
1999-01-20 01:00:00,-12.49,-11.97,-11.81,-11.84
1999-01-20 02:00:00,-10.96,-10.18,-10.28,-10.10
1999-01-20 03:00:00,-10.60,-9.96,-9.82,-9.89
1999-01-20 04:00:00,-11.05,-10.27,-10.22,-10.25
1999-01-20 05:00:00,-11.13,-10.37,-10.22,-10.33
1999-01-20 06:00:00,-10.80,-10.22,-10.11,-10.12
1999-01-20 07:00:00,-10.98,-10.08,-10.34,-10.20
1999-01-20 08:00:00,-10.20,-9.69,-9.31,-9.34
1999-01-20 09:00:00,-10.57,-9.91,-9.83,-9.92
1999-01-20 10:00:00,-9.98,-9.38,-9.37,-9.27
1999-01-20 11:00:00,-10.25,-9.70,-9.50,-9.48
1999-01-20 12:00:00,-9.78,-9.03,-9.17,-9.01
1999-01-20 13:00:00,-7.88,-7.03,-7.35,-7.18
1999-01-20 14:00:00,-6.09,-5.55,-5.54,-5.50
1999-01-20 15:00:00,-5.98,-5.67,-5.56,-5.49
1999-01-20 16:00:00,-6.79,-6.50,-6.24,-6.34
1999-01-20 17:00:00,-7.29,-6.78,-6.79,-6.86
1999-01-20 18:00:00,-6.71,-6.32,-6.29,-6.24
1999-01-20 19:00:00,-4.40,-4.10,-4.30,-4.19
1999-01-20 20:00:00,-1.66,-1.56,-1.67,-1.21
1999-01-20 21:00:00,-1.36,-1.34,-1.40,-1.03
1999-01-20 22:00:00,-1.66,-1.64,-1.57,-1.16
1999-01-20 23:00:00,-2.14,-2.09,-2.18,-1.90
1999-01-21 00:00:00,-2.73,-2.92,-2.62,-2.30
1999-01-21 01:00:00,-3.75,-3.43,-3.45,-3.41
1999-01-21 02:00:00,-3.53,-3.43,-3.50,-3.28
1999-01-21 03:00:00,-2.14,-2.08,-2.13,-1.89
1999-01-21 04:00:00,-2.06,-2.00,-2.05,-1.80
1999-01-21 05:00:00,-2.61,-2.65,-2.61,-2.24
1999-01-21 06:00:00,-3.19,-3.21,-3.18,-2.85
1999-01-21 07:00:00,-3.67,-3.65,-3.63,-3.34
1999-01-21 08:00:00,-3.73,-3.69,-3.67,-3.44
1999-01-21 09:00:00,-5.31,-5.31,-5.04,-4.83
1999-01-21 10:00:00,-5.27,-4.97,-5.03,-4.92
1999-01-21 11:00:00,-4.62,-4.53,-4.58,-4.28
1999-01-21 12:00:00,-4.66,-4.64,-4.53,-4.17
1999-01-21 13:00:00,-5.57,-5.37,-5.30,-5.09
1999-01-21 14:00:00,-5.06,-4.89,-4.91,-4.67
1999-01-21 15:00:00,-4.79,-4.72,-4.69,-4.39
1999-01-21 16:00:00,-5.10,-5.03,-5.02,-4.79
1999-01-21 17:00:00,-4.70,-4.67,-4.64,-4.34
1999-01-21 18:00:00,-4.73,-4.66,-4.63,-4.32
1999-01-21 19:00:00,-4.94,-4.86,-4.85,-4.57
1999-01-21 20:00:00,-4.56,-4.43,-4.46,-4.16
1999-01-21 21:00:00,-4.71,-4.63,-4.62,-4.32
1999-01-21 22:00:00,-4.46,-4.36,-4.37,-4.12
1999-01-21 23:00:00,-4.25,-4.11,-4.15,-3.90
1999-01-22 00:00:00,-4.23,-4.16,-4.14,-3.90
1999-01-22 01:00:00,-4.56,-4.44,-4.44,-4.17
1999-01-22 02:00:00,-4.07,-3.93,-3.96,-3.69
1999-01-22 03:00:00,-4.69,-4.60,-4.53,-4.34
1999-01-22 04:00:00,-5.05,-4.87,-4.92,-4.74
1999-01-22 05:00:00,-4.38,-4.16,-4.24,-4.02
1999-01-22 06:00:00,-4.80,-4.61,-4.57,-4.34
1999-01-22 07:00:00,-4.81,-4.54,-4.66,-4.52
1999-01-22 08:00:00,-5.55,-5.59,-5.31,-5.09
1999-01-22 09:00:00,-6.65,-6.54,-6.52,-6.41
1999-01-22 10:00:00,-7.37,-7.36,-7.04,-6.99
1999-01-22 11:00:00,-7.94,-7.61,-7.55,-7.40
1999-01-22 12:00:00,-8.08,-7.69,-7.60,-7.52
1999-01-22 13:00:00,-7.95,-7.46,-7.46,-7.28
1999-01-22 14:00:00,-7.95,-7.60,-7.48,-7.35
1999-01-22 15:00:00,-8.93,-8.54,-8.46,-8.37
1999-01-22 16:00:00,-7.94,-7.38,-7.49,-7.32
1999-01-22 17:00:00,-8.62,-8.33,-8.16,-8.04
1999-01-22 18:00:00,-7.66,-7.27,-7.34,-7.11
1999-01-22 19:00:00,-7.31,-6.97,-6.95,-6.73
1999-01-22 20:00:00,-7.11,-6.91,-6.79,-6.58
1999-01-22 21:00:00,-7.25,-7.20,-6.89,-6.64
1999-01-22 22:00:00,-10.85,-11.07,-10.42,-10.28